Home > Weather > Hialeah > Past weeks

Flag for USA Past Weather in Hialeah, Florida, USA — Yesterday and Last 2 Weeks

Now
91 °F

Sunny.


Feels Like: 103 °F
Forecast: 80 / 89 °F
Wind: 10 mph from East

Location: Opa Locka Airport

Current Time: Aug 26, 2016 at 4:01:35 PM

Latest Report: Aug 26, 2016 at 2:53 PM


Visibility: 10 mi

Pressure: 29.91 "Hg

Humidity: 61%

Dew Point: 76 °F

Location of HialeahLocation

Past Weather in Hialeah — Graph

°F

Hialeah Temperature Yesterday

Maximum temperature yesterday: 92 °F (at 11:53 AM)
Minimum temperature yesterday: 81 °F (at 6:53 AM)
Average temperature yesterday: 86 °F

High & Low Weather Summary for the Past Weeks

 TemperatureHumidityPressure
High95 °F (Aug 21, 12:53 PM)94% (Aug 12, 5:53 AM)30.16 "Hg (Aug 12, 5:53 AM)
Low76 °F (Aug 12, 4:53 AM)44% (Aug 21, 12:53 PM)29.91 "Hg (Aug 26, 2:53 PM)
Average85 °F73%30.05 "Hg
* Reported Aug 11 2:53 PM — Aug 26 2:53 PM, Hialeah, Weather by CustomWeather, © 2016

Note: Actual official high and low records may vary slightly from our data, if they occured in-between our weather recording intervals... More about our weather records

Advertising

Hialeah Weather History for the Previous 24 Hours

Scroll right to see more
 ConditionsComfort  
Time TempWeatherWind HumidityBarometerVisibility
2:53 PM
Fri, Aug 26
91 °FSunny.10 mph61%29.91 "Hg10 mi
1:53 PM91 °FSunny.10 mph61%29.92 "Hg10 mi
12:53 PM91 °FPassing clouds.10 mph60%29.94 "Hg10 mi
11:53 AM90 °FScattered clouds.9 mph63%29.96 "Hg10 mi
10:53 AM88 °FScattered clouds.8 mph70%29.97 "Hg10 mi
9:53 AM85 °FSunny.No wind77%29.97 "Hg10 mi
8:53 AM81 °FSunny.No wind82%29.96 "Hg10 mi
7:53 AM78 °FLight rain. Passing clouds.6 mph87%29.97 "Hg10 mi
6:53 AM79 °FThundershowers. Passing clouds.7 mph90%29.95 "Hg10 mi
5:53 AM79 °FThunderstorms. Mostly cloudy.5 mph94%29.95 "Hg10 mi
4:53 AM80 °FThunderstorms. Passing clouds.No wind87%29.94 "Hg10 mi
3:53 AM79 °FThunderstorms. Passing clouds.5 mph94%29.93 "Hg10 mi
2:53 AM82 °FThundershowers. Passing clouds.6 mph88%29.93 "Hg10 mi
1:53 AM82 °FClear.6 mph88%29.95 "Hg10 mi
12:53 AM83 °FClear.3 mph82%29.94 "Hg10 mi
11:53 PM
Thu, Aug 25
83 °FClear.7 mph79%29.95 "Hg10 mi
10:53 PM83 °FPassing clouds.8 mph82%29.95 "Hg10 mi
9:53 PM84 °FPassing clouds.7 mph80%29.96 "Hg10 mi
8:53 PM83 °FPassing clouds.12 mph77%29.96 "Hg10 mi
7:53 PM86 °FSunny.13 mph70%29.95 "Hg10 mi
6:53 PM87 °FSunny.16 mph69%29.93 "Hg10 mi
5:53 PM87 °FWarm.15 mph67%29.95 "Hg10 mi
4:53 PM91 °FScattered clouds.16 mph64%29.93 "Hg10 mi
Weather by CustomWeather, © 2016

See weather overviewHow to use our weather pages